User: anonymous   Login
Location: Unspecified
(0.0000°N, 0.0000°E)
Time: 19:00:14
(UTC+00:00)
Language:

Meteor 2-15 - Orbit

View from above orbital plane
View from above orbital plane
View from above satellite
View from above satellite

Ground track
Ground track

The orbit data is extracted from the following two-line orbital elements,

1 17290U 87001A   18016.22195737  .00000061  00000-0  41067-4 0  9996
2 17290  82.4657  47.4553 0013733 151.8017 208.3890 13.85013241568299
Epoch (UTC): 16 January 2018 05:19:37
Eccentricity: 0.0013733
inclination: 82.4657°
perigee height: 936 km
apogee height: 956 km
right ascension of ascending node: 47.4553°
argument of perigee: 151.8017°
revolutions per day: 13.85013241
mean anomaly at epoch: 208.3890°
orbit number at epoch: 56829

The dashed part of the orbit path shows where the satellite is in the earth's shadow,  

DLR